Temp_Advection
nan nan nan nan nan nan nan nan nan nan nan nan nan nan nan nan nan nan nan nan nan nan
nan 0 0 0 0 -0 -0 -0 -0 -0 -0 -0 -0 -0 -0 -0 -0 -0 -0 -0 -0 nan
nan 0 0 0 0 -0 -0 -0 -0 -0 -0 -0 -0 -0 -0 -0 -0 -0 -0 -0 -0 nan
nan 0 0 0 -0 -0 -0 -0 -0 -0 -0 -0 -0 -0 -0 -0 -0 -0 -1 -0 -0 nan
nan 0 0 0 -0 -0 -0 -0 -0 -0 -0 -0 -0 -0 0 -0 -1 -0 -0 -1 -1 nan
nan 0 0 -0 -0 -0 -0 -0 -0 -0 -0 -0 -0 -0 -0 -0 -0 -0 -0 -0 -0 nan
nan 0 0 -0 -0 -0 -0 -0 -0 -0 -0 -0 -0 -0 -0 -0 -0 0 0 0 0 nan
nan 0 -0 -0 -0 -0 -0 -0 -0 -0 -0 -0 -0 -0 -0 -0 -0 -0 0 0 0 nan
nan 0 -0 -0 -0 -0 -0 -0 -0 -0 -0 -0 -0 -0 0 0 -0 0 0 0 0 nan
nan -0 -0 -0 -0 -0 -0 -0 -0 -0 -0 -0 -0 -0 -0 -0 -0 0 0 0 -0 nan
nan -0 -0 -0 -0 -0 -0 -0 -0 -0 -0 -1 -1 -0 -0 -0 -0 -0 -0 0 -0 nan
nan -0 -0 -0 -0 -0 -0 -0 -0 -0 -0 -0 -1 -0 -1 -1 -1 -0 -0 -0 -0 nan
nan -0 -0 -0 -0 -0 -0 -0 -1 -1 -0 -0 -0 -0 -1 -1 -1 -1 -0 -0 -0 nan
nan nan nan nan nan nan nan nan nan nan nan nan nan nan nan nan nan nan nan nan nan nan
Wind_Speed
10 8 5 3 2 5 9 13 16 19 20 18 18 20 22 24 25 27 29 30 29 29
9 7 4 3 5 7 11 14 17 19 19 18 20 22 24 26 29 30 31 31 30 28
8 6 5 5 6 9 13 16 18 19 19 19 21 24 26 29 30 31 32 31 30 31
8 7 6 6 8 12 15 17 19 19 19 21 23 26 29 30 31 33 32 31 32 36
9 7 7 8 10 13 16 18 18 18 20 22 25 28 30 31 32 31 32 34 39 39
9 8 7 9 12 15 17 17 17 19 22 25 28 30 30 31 30 31 34 37 39 40
8 7 7 10 13 16 17 17 18 20 24 27 29 30 32 31 31 32 34 37 38 36
7 6 8 11 14 16 15 16 20 24 26 27 29 30 31 31 30 31 34 37 36 32
6 6 8 12 15 13 15 18 22 25 27 28 29 30 31 27 29 32 34 36 35 30
5 7 10 13 12 13 17 21 25 27 27 29 31 31 29 27 29 32 33 33 35 33
6 8 11 11 12 15 20 24 27 28 28 30 32 32 28 28 29 31 31 34 32 33
7 9 9 10 13 18 24 26 28 29 31 33 33 31 29 27 29 31 33 30 27 26
8 8 8 11 16 21 25 27 29 31 32 32 32 33 28 25 28 30 31 30 34 36
6 7 10 14 19 25 27 30 31 32 33 33 33 36 29 26 26 26 30 33 37 40
Wind_Direction
183 183 184 198 284 316 326 333 338 337 335 334 332 329 329 329 327 325 321 319 315 311
188 195 212 259 302 322 329 334 334 333 334 333 331 329 328 327 325 321 319 317 315 312
200 213 242 276 302 321 330 332 332 333 333 331 329 328 327 325 322 321 321 320 316 312
216 234 258 283 311 325 330 332 333 331 331 331 330 329 326 325 324 324 320 318 315 310
229 246 268 295 317 328 332 333 330 330 332 331 330 329 327 326 326 323 322 317 313 314
236 255 280 310 327 332 331 329 331 332 332 332 332 330 329 327 326 321 314 314 316 319
242 266 300 324 331 330 328 332 332 332 334 334 333 331 329 327 320 317 315 313 316 321
251 286 314 326 330 329 332 332 333 335 335 334 332 330 328 323 319 315 311 312 318 323
270 300 315 324 330 332 332 334 336 335 334 332 331 330 328 321 314 310 310 313 321 331
280 303 318 328 332 332 335 336 335 335 333 332 332 331 327 321 314 310 311 318 325 326
292 313 324 327 331 334 335 335 336 334 333 332 332 333 327 322 318 317 315 319 323 322
312 320 321 329 334 335 335 335 334 334 334 335 335 334 332 328 320 316 320 324 320 322
314 316 328 333 336 336 335 333 334 334 334 334 335 336 336 330 324 325 326 323 319 324
314 328 334 335 335 335 333 335 334 331 334 336 340 340 339 338 334 329 323 323 325 328
Height
1485 1487 1487 1487 1487 1486 1484 1483 1481 1479 1476 1473 1471 1468 1465 1462 1459 1456 1453 1449 1446 1442
1483 1485 1485 1485 1484 1483 1482 1481 1479 1476 1474 1471 1468 1465 1461 1458 1454 1451 1447 1443 1439 1435
1481 1482 1482 1482 1482 1481 1480 1478 1476 1473 1470 1467 1464 1461 1457 1453 1449 1445 1441 1436 1432 1429
1479 1479 1480 1479 1479 1478 1477 1475 1472 1469 1466 1463 1460 1456 1452 1447 1442 1438 1433 1430 1426 1422
1476 1476 1477 1476 1476 1475 1473 1471 1468 1466 1462 1459 1455 1451 1446 1441 1437 1432 1427 1423 1419 1414
1473 1473 1474 1473 1473 1471 1469 1467 1465 1462 1458 1454 1449 1444 1440 1435 1430 1426 1422 1417 1412 1407
1470 1471 1471 1471 1469 1467 1465 1463 1461 1458 1453 1449 1444 1439 1434 1429 1425 1420 1416 1412 1407 1402
1467 1468 1468 1467 1465 1464 1462 1459 1456 1453 1449 1444 1440 1434 1429 1424 1419 1414 1410 1406 1401 1397
1466 1466 1465 1464 1462 1460 1459 1456 1452 1449 1444 1439 1435 1430 1424 1420 1414 1409 1404 1399 1395 1391
1463 1463 1462 1461 1459 1457 1455 1452 1448 1444 1439 1434 1429 1424 1419 1414 1409 1403 1399 1394 1389 1385
1461 1460 1459 1458 1456 1454 1451 1447 1443 1439 1434 1429 1424 1419 1413 1408 1403 1398 1393 1389 1384 1379
1459 1458 1456 1455 1453 1450 1447 1443 1438 1434 1428 1423 1418 1413 1407 1403 1397 1391 1387 1383 1378 1374
1456 1455 1454 1452 1450 1447 1442 1438 1433 1428 1424 1419 1413 1407 1403 1398 1392 1385 1381 1378 1373 1369
1453 1452 1451 1449 1446 1442 1438 1433 1428 1423 1418 1413 1408 1402 1397 1393 1388 1383 1377 1372 1366 1361